Time,TemperatureF,DewpointF,PressureIn,WindDirection,WindDirectionDegrees,WindSpeedMPH,WindSpeedGustMPH,Humidity,HourlyPrecipIn,Conditions,Clouds,dailyrainin,SolarRadiationWatts/m^2,SoftwareType,DateUTC
2013-08-09 00:04:00,73.7,72.8,29.90,SE,132,0.0,0.0,97,0.00,,,0.78,0,Wunderground v.1.15,2013-08-09 05:04:00,
2013-08-09 00:10:00,73.5,72.6,29.89,SE,133,0.0,0.0,97,0.00,,,0.00,0,Wunderground v.1.15,2013-08-09 05:10:00,
2013-08-09 00:16:00,73.2,72.3,29.89,SE,132,0.0,0.0,97,0.00,,,0.00,0,Wunderground v.1.15,2013-08-09 05:16:00,
2013-08-09 00:21:00,73.1,72.2,29.89,SE,133,0.0,0.0,97,0.00,,,0.00,0,Wunderground v.1.15,2013-08-09 05:21:00,
2013-08-09 00:26:00,73.0,72.1,29.89,SE,133,0.0,0.0,97,0.00,,,0.00,0,Wunderground v.1.15,2013-08-09 05:26:00,
2013-08-09 00:32:00,73.0,72.1,29.89,SE,132,0.0,0.0,97,0.00,,,0.00,0,Wunderground v.1.15,2013-08-09 05:32:00,
2013-08-09 00:38:00,73.0,72.4,29.89,SE,133,0.0,1.0,98,0.00,,,0.00,0,Wunderground v.1.15,2013-08-09 05:38:00,
2013-08-09 00:44:00,73.0,72.4,29.89,SE,133,0.0,0.0,98,0.00,,,0.00,0,Wunderground v.1.15,2013-08-09 05:44:00,
2013-08-09 00:50:00,73.0,72.4,29.89,SE,133,0.0,0.0,98,0.00,,,0.00,0,Wunderground v.1.15,2013-08-09 05:50:00,
2013-08-09 00:56:00,72.9,72.0,29.89,SE,133,0.0,0.0,97,0.00,,,0.00,0,Wunderground v.1.15,2013-08-09 05:56:00,
2013-08-09 01:02:00,72.8,71.9,29.90,SE,132,0.0,1.0,97,0.00,,,0.00,0,Wunderground v.1.15,2013-08-09 06:02:00,
2013-08-09 01:08:00,72.8,71.9,29.90,SE,133,0.0,1.0,97,0.00,,,0.00,0,Wunderground v.1.15,2013-08-09 06:08:00,
2013-08-09 01:14:00,72.7,71.8,29.90,SE,133,0.0,0.0,97,0.00,,,0.00,0,Wunderground v.1.15,2013-08-09 06:14:00,
2013-08-09 01:20:00,72.7,72.1,29.89,SE,132,0.0,1.0,98,0.00,,,0.00,0,Wunderground v.1.15,2013-08-09 06:20:00,
2013-08-09 01:25:00,72.7,72.1,29.89,SE,132,1.0,1.0,98,0.00,,,0.00,0,Wunderground v.1.15,2013-08-09 06:25:00,
2013-08-09 01:31:00,72.6,72.0,29.90,SE,133,0.0,1.0,98,0.00,,,0.00,0,Wunderground v.1.15,2013-08-09 06:31:00,
2013-08-09 01:37:00,72.6,72.0,29.90,SE,133,0.0,1.0,98,0.00,,,0.00,0,Wunderground v.1.15,2013-08-09 06:37:00,
2013-08-09 01:43:00,72.6,72.0,29.90,SE,133,0.0,1.0,98,0.00,,,0.00,0,Wunderground v.1.15,2013-08-09 06:43:00,
2013-08-09 01:49:00,72.6,72.0,29.90,SE,133,0.0,1.0,98,0.00,,,0.00,0,Wunderground v.1.15,2013-08-09 06:49:00,
2013-08-09 01:55:00,72.7,72.1,29.90,SE,132,0.0,1.0,98,0.00,,,0.00,0,Wunderground v.1.15,2013-08-09 06:55:00,
2013-08-09 02:00:00,72.8,72.2,29.90,SE,133,0.0,0.0,98,0.00,,,0.00,0,Wunderground v.1.15,2013-08-09 07:00:00,
2013-08-09 02:06:00,72.9,72.3,29.90,SE,133,0.0,0.0,98,0.00,,,0.00,0,Wunderground v.1.15,2013-08-09 07:06:00,
2013-08-09 02:11:00,73.0,72.4,29.90,SE,132,0.0,0.0,98,0.00,,,0.00,0,Wunderground v.1.15,2013-08-09 07:11:00,
2013-08-09 02:17:00,73.0,72.4,29.90,SE,133,0.0,0.0,98,0.00,,,0.00,0,Wunderground v.1.15,2013-08-09 07:17:00,
2013-08-09 02:23:00,73.0,72.4,29.90,SE,133,0.0,0.0,98,0.00,,,0.00,0,Wunderground v.1.15,2013-08-09 07:23:00,
2013-08-09 02:29:00,72.9,72.3,29.90,SE,133,0.0,0.0,98,0.00,,,0.00,0,Wunderground v.1.15,2013-08-09 07:29:00,
2013-08-09 02:34:00,72.9,72.3,29.90,SE,133,0.0,2.0,98,0.00,,,0.00,0,Wunderground v.1.15,2013-08-09 07:34:00,
2013-08-09 02:40:00,72.9,72.3,29.90,SE,133,0.0,2.0,98,0.00,,,0.00,0,Wunderground v.1.15,2013-08-09 07:40:00,
2013-08-09 02:46:00,73.0,72.4,29.91,SE,133,0.0,2.0,98,0.00,,,0.00,0,Wunderground v.1.15,2013-08-09 07:46:00,
2013-08-09 02:52:00,73.2,72.6,29.92,NW,310,1.0,2.0,98,0.00,,,0.00,0,Wunderground v.1.15,2013-08-09 07:52:00,
2013-08-09 02:57:00,73.4,72.8,29.93,NNW,334,3.0,8.0,98,0.00,,,0.00,0,Wunderground v.1.15,2013-08-09 07:57:00,
2013-08-09 03:03:00,73.5,72.9,29.93,NNW,336,6.0,8.0,98,0.00,,,0.01,0,Wunderground v.1.15,2013-08-09 08:03:00,
2013-08-09 03:09:00,73.2,72.6,29.91,NNW,332,6.0,9.0,98,0.00,,,0.01,0,Wunderground v.1.15,2013-08-09 08:09:00,
2013-08-09 03:15:00,73.0,72.4,29.91,NW,324,5.0,6.0,98,0.00,,,0.01,0,Wunderground v.1.15,2013-08-09 08:15:00,
2013-08-09 03:21:00,72.9,72.0,29.92,NW,315,4.0,7.0,97,0.00,,,0.02,0,Wunderground v.1.15,2013-08-09 08:21:00,
2013-08-09 03:27:00,72.8,71.9,29.92,WNW,300,4.0,7.0,97,0.00,,,0.02,0,Wunderground v.1.15,2013-08-09 08:27:00,
2013-08-09 03:33:00,72.7,71.8,29.92,NW,310,5.0,8.0,97,0.05,,,0.03,0,Wunderground v.1.15,2013-08-09 08:33:00,
2013-08-09 03:39:00,72.6,71.7,29.92,West,267,5.0,8.0,97,0.05,,,0.03,0,Wunderground v.1.15,2013-08-09 08:39:00,
2013-08-09 03:44:00,72.4,71.5,29.92,NW,324,3.0,5.0,97,0.04,,,0.03,0,Wunderground v.1.15,2013-08-09 08:44:00,
2013-08-09 03:50:00,72.3,71.4,29.91,NW,311,2.0,2.0,97,0.00,,,0.04,0,Wunderground v.1.15,2013-08-09 08:50:00,
2013-08-09 03:56:00,72.2,71.3,29.91,NW,311,1.0,2.0,97,0.00,,,0.04,0,Wunderground v.1.15,2013-08-09 08:56:00,
2013-08-09 04:02:00,72.1,71.2,29.91,NW,311,0.0,0.0,97,0.00,,,0.04,0,Wunderground v.1.15,2013-08-09 09:02:00,
2013-08-09 04:07:00,72.0,71.1,29.91,NW,311,0.0,1.0,97,0.04,,,0.05,0,Wunderground v.1.15,2013-08-09 09:07:00,
2013-08-09 04:13:00,72.0,71.1,29.91,NW,311,0.0,0.0,97,0.04,,,0.05,0,Wunderground v.1.15,2013-08-09 09:13:00,
2013-08-09 04:19:00,71.9,71.0,29.91,NW,312,0.0,0.0,97,0.04,,,0.05,0,Wunderground v.1.15,2013-08-09 09:19:00,
2013-08-09 04:25:00,71.9,71.0,29.90,NW,311,1.0,3.0,97,0.00,,,0.05,0,Wunderground v.1.15,2013-08-09 09:25:00,
2013-08-09 04:31:00,71.8,70.9,29.91,NW,311,1.0,11.0,97,0.00,,,0.05,0,Wunderground v.1.15,2013-08-09 09:31:00,
2013-08-09 04:37:00,71.8,71.2,29.92,NW,311,0.0,11.0,98,0.00,,,0.06,0,Wunderground v.1.15,2013-08-09 09:37:00,
2013-08-09 04:42:00,71.8,71.2,29.90,NW,311,0.0,11.0,98,0.00,,,0.06,0,Wunderground v.1.15,2013-08-09 09:42:00,
2013-08-09 04:48:00,71.8,71.2,29.90,WSW,257,0.0,11.0,98,0.00,,,0.06,0,Wunderground v.1.15,2013-08-09 09:48:00,
2013-08-09 04:54:00,71.8,71.2,29.89,WSW,257,0.0,11.0,98,0.00,,,0.06,0,Wunderground v.1.15,2013-08-09 09:54:00,
2013-08-09 05:00:00,71.8,71.2,29.90,WSW,257,0.0,0.0,98,0.00,,,0.06,0,Wunderground v.1.15,2013-08-09 10:00:00,
2013-08-09 05:06:00,71.8,71.2,29.90,WSW,257,0.0,0.0,98,0.00,,,0.07,0,Wunderground v.1.15,2013-08-09 10:06:00,
2013-08-09 05:12:00,71.8,71.2,29.91,WSW,257,0.0,0.0,98,0.00,,,0.07,0,Wunderground v.1.15,2013-08-09 10:12:00,
2013-08-09 05:18:00,71.7,71.1,29.91,WSW,257,0.0,0.0,98,0.00,,,0.07,0,Wunderground v.1.15,2013-08-09 10:18:00,
2013-08-09 05:23:00,71.6,71.0,29.91,WSW,257,0.0,0.0,98,0.00,,,0.07,0,Wunderground v.1.15,2013-08-09 10:23:00,
2013-08-09 05:29:00,71.6,71.0,29.91,WSW,257,0.0,0.0,98,0.00,,,0.07,0,Wunderground v.1.15,2013-08-09 10:29:00,
2013-08-09 05:35:00,71.5,70.9,29.90,WSW,257,0.0,3.0,98,0.00,,,0.07,0,Wunderground v.1.15,2013-08-09 10:35:00,
2013-08-09 05:41:00,71.4,70.8,29.91,WSW,257,0.0,3.0,98,0.00,,,0.07,0,Wunderground v.1.15,2013-08-09 10:41:00,
2013-08-09 05:47:00,71.4,70.8,29.92,WSW,257,0.0,3.0,98,0.00,,,0.08,0,Wunderground v.1.15,2013-08-09 10:47:00,
2013-08-09 05:53:00,71.5,70.9,29.92,WSW,257,0.0,3.0,98,0.00,,,0.08,0,Wunderground v.1.15,2013-08-09 10:53:00,
2013-08-09 05:59:00,71.4,70.8,29.92,WSW,257,0.0,3.0,98,0.00,,,0.08,0,Wunderground v.1.15,2013-08-09 10:59:00,
2013-08-09 06:05:00,71.5,70.9,29.93,WSW,257,0.0,0.0,98,0.00,,,0.08,0,Wunderground v.1.15,2013-08-09 11:05:00,
2013-08-09 06:11:00,71.5,70.9,29.92,WSW,257,0.0,0.0,98,0.00,,,0.08,0,Wunderground v.1.15,2013-08-09 11:11:00,
2013-08-09 06:16:00,71.6,71.0,29.93,WSW,257,0.0,0.0,98,0.00,,,0.08,0,Wunderground v.1.15,2013-08-09 11:16:00,
2013-08-09 06:22:00,71.5,70.9,29.93,WSW,257,0.0,0.0,98,0.00,,,0.09,0,Wunderground v.1.15,2013-08-09 11:22:00,
2013-08-09 06:28:00,71.6,71.0,29.93,WSW,257,0.0,2.0,98,0.00,,,0.09,7,Wunderground v.1.15,2013-08-09 11:28:00,
2013-08-09 06:34:00,71.6,71.0,29.93,WSW,257,0.0,0.0,98,0.00,,,0.09,11,Wunderground v.1.15,2013-08-09 11:34:00,
2013-08-09 06:39:00,71.6,71.0,29.93,WSW,257,0.0,0.0,98,0.00,,,0.09,11,Wunderground v.1.15,2013-08-09 11:39:00,
2013-08-09 06:45:00,71.7,71.1,29.93,WSW,257,0.0,1.0,98,0.00,,,0.09,14,Wunderground v.1.15,2013-08-09 11:45:00,
2013-08-09 06:51:00,71.7,71.1,29.93,WSW,257,0.0,0.0,98,0.00,,,0.09,16,Wunderground v.1.15,2013-08-09 11:51:00,
2013-08-09 06:57:00,71.8,71.2,29.94,WSW,257,0.0,0.0,98,0.00,,,0.09,19,Wunderground v.1.15,2013-08-09 11:57:00,
2013-08-09 07:02:00,71.9,71.3,29.94,SSE,150,0.0,1.0,98,0.00,,,0.09,23,Wunderground v.1.15,2013-08-09 12:02:00,
2013-08-09 07:08:00,71.9,71.3,29.94,SSE,150,0.0,1.0,98,0.00,,,0.09,33,Wunderground v.1.15,2013-08-09 12:08:00,
2013-08-09 07:14:00,72.1,71.5,29.94,SSE,150,0.0,0.0,98,0.00,,,0.09,42,Wunderground v.1.15,2013-08-09 12:14:00,
2013-08-09 07:20:00,72.2,71.6,29.94,SSE,150,0.0,0.0,98,0.00,,,0.10,56,Wunderground v.1.15,2013-08-09 12:20:00,
2013-08-09 07:25:00,72.4,71.8,29.94,SSE,150,0.0,0.0,98,0.00,,,0.10,56,Wunderground v.1.15,2013-08-09 12:25:00,
2013-08-09 07:31:00,72.5,72.2,29.95,SSE,150,0.0,2.0,99,0.00,,,0.10,53,Wunderground v.1.15,2013-08-09 12:31:00,
2013-08-09 07:36:00,72.7,72.4,29.95,SSE,150,0.0,2.0,99,0.00,,,0.10,56,Wunderground v.1.15,2013-08-09 12:36:00,
2013-08-09 07:42:00,72.7,72.1,29.95,SSE,150,0.0,2.0,98,0.00,,,0.10,56,Wunderground v.1.15,2013-08-09 12:42:00,
2013-08-09 07:47:00,72.8,72.2,29.94,SSE,150,0.0,2.0,98,0.00,,,0.10,60,Wunderground v.1.15,2013-08-09 12:47:00,
2013-08-09 07:52:00,72.9,72.3,29.95,SSE,150,0.0,2.0,98,0.00,,,0.10,60,Wunderground v.1.15,2013-08-09 12:52:00,
2013-08-09 07:57:00,73.0,72.4,29.95,SSE,150,0.0,2.0,98,0.00,,,0.10,67,Wunderground v.1.15,2013-08-09 12:57:00,
2013-08-09 08:03:00,73.2,72.9,29.95,ESE,107,0.0,0.0,99,0.00,,,0.11,70,Wunderground v.1.15,2013-08-09 13:03:00,
2013-08-09 08:09:00,73.3,72.7,29.95,ESE,107,0.0,0.0,98,0.00,,,0.11,86,Wunderground v.1.15,2013-08-09 13:09:00,
2013-08-09 08:15:00,73.5,72.9,29.95,ESE,107,0.0,0.0,98,0.00,,,0.11,91,Wunderground v.1.15,2013-08-09 13:15:00,
2013-08-09 08:21:00,73.7,73.1,29.95,ESE,107,0.0,0.0,98,0.00,,,0.11,83,Wunderground v.1.15,2013-08-09 13:21:00,
2013-08-09 08:27:00,73.7,73.1,29.95,ESE,107,0.0,2.0,98,0.00,,,0.11,58,Wunderground v.1.15,2013-08-09 13:27:00,
2013-08-09 08:32:00,73.7,73.1,29.95,ESE,107,1.0,2.0,98,0.00,,,0.11,83,Wunderground v.1.15,2013-08-09 13:32:00,
2013-08-09 08:38:00,73.9,73.3,29.95,ESE,107,1.0,2.0,98,0.00,,,0.11,120,Wunderground v.1.15,2013-08-09 13:38:00,
2013-08-09 08:44:00,74.2,73.6,29.95,ESE,107,0.0,2.0,98,0.00,,,0.11,149,Wunderground v.1.15,2013-08-09 13:44:00,
2013-08-09 08:49:00,74.5,73.9,29.96,ESE,107,0.0,2.0,98,0.00,,,0.11,156,Wunderground v.1.15,2013-08-09 13:49:00,
2013-08-09 08:55:00,74.8,74.2,29.96,ESE,107,0.0,2.0,98,0.00,,,0.12,179,Wunderground v.1.15,2013-08-09 13:55:00,
2013-08-09 09:00:00,75.1,74.5,29.96,WNW,288,0.0,0.0,98,0.00,,,0.12,193,Wunderground v.1.15,2013-08-09 14:00:00,
2013-08-09 09:06:00,75.4,74.5,29.96,WSW,249,0.0,1.0,97,0.00,,,0.12,181,Wunderground v.1.15,2013-08-09 14:06:00,
2013-08-09 09:11:00,75.6,74.4,29.96,SE,140,0.0,2.0,96,0.00,,,0.12,179,Wunderground v.1.15,2013-08-09 14:11:00,
2013-08-09 09:17:00,75.8,74.6,29.95,SE,134,0.0,2.0,96,0.00,,,0.12,179,Wunderground v.1.15,2013-08-09 14:17:00,
2013-08-09 09:23:00,76.2,75.0,29.96,SE,134,0.0,2.0,96,0.00,,,0.12,243,Wunderground v.1.15,2013-08-09 14:23:00,
2013-08-09 09:29:00,76.5,75.0,29.96,WNW,302,1.0,3.0,95,0.00,,,0.12,276,Wunderground v.1.15,2013-08-09 14:29:00,
2013-08-09 09:35:00,76.9,75.4,29.96,SSW,196,1.0,2.0,95,0.00,,,0.13,260,Wunderground v.1.15,2013-08-09 14:35:00,
2013-08-09 09:40:00,77.1,74.6,29.95,SSW,196,0.0,2.0,92,0.00,,,0.13,174,Wunderground v.1.15,2013-08-09 14:40:00,
2013-08-09 09:46:00,77.4,74.6,29.96,SSW,197,0.0,2.0,91,0.00,,,0.13,193,Wunderground v.1.15,2013-08-09 14:46:00,
2013-08-09 09:51:00,77.6,75.1,29.96,WSW,248,0.0,2.0,92,0.00,,,0.13,308,Wunderground v.1.15,2013-08-09 14:51:00,
2013-08-09 09:56:00,77.8,75.0,29.96,WNW,303,1.0,4.0,91,0.00,,,0.13,399,Wunderground v.1.15,2013-08-09 14:56:00,
2013-08-09 10:02:00,78.1,75.3,29.96,WNW,299,1.0,3.0,91,0.00,,,0.13,599,Wunderground v.1.15,2013-08-09 15:02:00,
2013-08-09 10:08:00,78.5,75.3,29.96,West,275,1.0,3.0,90,0.00,,,0.13,545,Wunderground v.1.15,2013-08-09 15:08:00,
2013-08-09 10:14:00,78.7,75.5,29.96,NNW,340,2.0,2.0,90,0.00,,,0.13,341,Wunderground v.1.15,2013-08-09 15:14:00,
2013-08-09 10:19:00,79.0,75.8,29.96,NW,308,1.0,2.0,90,0.00,,,0.13,622,Wunderground v.1.15,2013-08-09 15:19:00,
2013-08-09 10:25:00,79.5,76.0,29.96,WNW,290,1.0,2.0,89,0.00,,,0.14,647,Wunderground v.1.15,2013-08-09 15:25:00,
2013-08-09 10:31:00,80.2,76.7,29.96,SSW,195,1.0,3.0,89,0.00,,,0.14,684,Wunderground v.1.15,2013-08-09 15:31:00,
2013-08-09 10:37:00,81.0,76.1,29.96,SSE,150,1.0,3.0,85,0.00,,,0.14,689,Wunderground v.1.15,2013-08-09 15:37:00,
2013-08-09 10:43:00,81.2,75.2,29.96,SE,146,1.0,3.0,82,0.00,,,0.14,675,Wunderground v.1.15,2013-08-09 15:43:00,
2013-08-09 10:48:00,81.4,76.1,29.96,South,182,1.0,3.0,84,0.00,,,0.14,715,Wunderground v.1.15,2013-08-09 15:48:00,
2013-08-09 10:54:00,81.9,76.9,29.96,SSW,200,1.0,3.0,85,0.00,,,0.14,707,Wunderground v.1.15,2013-08-09 15:54:00,
2013-08-09 11:00:00,82.4,76.0,29.96,SSE,168,1.0,2.0,81,0.00,,,0.15,698,Wunderground v.1.15,2013-08-09 16:00:00,
2013-08-09 11:06:00,82.5,76.4,29.96,SSE,152,1.0,2.0,82,0.00,,,0.15,740,Wunderground v.1.15,2013-08-09 16:06:00,
2013-08-09 11:12:00,82.7,76.6,29.96,WSW,241,1.0,1.0,82,0.00,,,0.15,837,Wunderground v.1.15,2013-08-09 16:12:00,
2013-08-09 11:18:00,83.2,75.6,29.96,South,174,1.0,2.0,78,0.00,,,0.15,350,Wunderground v.1.15,2013-08-09 16:18:00,
2013-08-09 11:24:00,83.0,76.2,29.96,SE,132,1.0,2.0,80,0.00,,,0.15,271,Wunderground v.1.15,2013-08-09 16:24:00,
2013-08-09 11:30:00,82.7,76.3,29.96,NNW,336,1.0,1.0,81,0.00,,,0.15,278,Wunderground v.1.15,2013-08-09 16:30:00,
2013-08-09 11:37:00,82.3,75.9,29.96,ESE,117,1.0,3.0,81,0.00,,,0.15,241,Wunderground v.1.15,2013-08-09 16:37:00,
2013-08-09 11:43:00,82.3,75.9,29.96,SE,127,1.0,3.0,81,0.00,,,0.16,947,Wunderground v.1.15,2013-08-09 16:43:00,
2013-08-09 11:49:00,82.9,76.5,29.96,South,187,1.0,3.0,81,0.00,,,0.16,594,Wunderground v.1.15,2013-08-09 16:49:00,
2013-08-09 11:54:00,83.0,75.8,29.95,SSE,147,2.0,3.0,79,0.00,,,0.16,612,Wunderground v.1.15,2013-08-09 16:54:00,
2013-08-09 12:00:00,83.2,75.6,29.95,SE,143,2.0,2.0,78,0.00,,,0.16,557,Wunderground v.1.15,2013-08-09 17:00:00,
2013-08-09 12:05:00,83.3,76.9,29.95,South,175,1.0,2.0,81,0.00,,,0.16,476,Wunderground v.1.15,2013-08-09 17:05:00,
2013-08-09 12:11:00,83.5,76.7,29.95,SW,231,1.0,1.0,80,0.00,,,0.16,461,Wunderground v.1.15,2013-08-09 17:11:00,
2013-08-09 12:17:00,83.4,76.2,29.95,WSW,247,1.0,2.0,79,0.00,,,0.17,396,Wunderground v.1.15,2013-08-09 17:17:00,
2013-08-09 12:23:00,83.4,75.8,29.95,WSW,247,1.0,1.0,78,0.00,,,0.17,339,Wunderground v.1.15,2013-08-09 17:23:00,
2013-08-09 12:28:00,83.6,77.1,29.95,West,267,1.0,3.0,81,0.00,,,0.17,364,Wunderground v.1.15,2013-08-09 17:28:00,
2013-08-09 12:34:00,83.8,75.8,29.95,South,180,1.0,4.0,77,0.00,,,0.17,443,Wunderground v.1.15,2013-08-09 17:34:00,
2013-08-09 12:40:00,83.7,75.7,29.94,SSE,162,1.0,1.0,77,0.00,,,0.17,404,Wunderground v.1.15,2013-08-09 17:40:00,
2013-08-09 12:46:00,84.1,76.5,29.94,SSW,213,1.0,4.0,78,0.00,,,0.17,390,Wunderground v.1.15,2013-08-09 17:46:00,
2013-08-09 12:52:00,84.2,75.8,29.94,NW,311,2.0,4.0,76,0.00,,,0.17,550,Wunderground v.1.15,2013-08-09 17:52:00,
2013-08-09 12:58:00,84.3,76.3,29.94,WNW,295,2.0,4.0,77,0.00,,,0.17,327,Wunderground v.1.15,2013-08-09 17:58:00,
2013-08-09 13:03:00,84.3,77.1,29.94,West,277,2.0,5.0,79,0.00,,,0.17,584,Wunderground v.1.15,2013-08-09 18:03:00,
2013-08-09 13:09:00,84.8,76.8,29.94,WSW,248,3.0,5.0,77,0.00,,,0.18,911,Wunderground v.1.15,2013-08-09 18:09:00,
2013-08-09 13:15:00,85.0,77.0,29.95,West,275,3.0,4.0,77,0.00,,,0.18,316,Wunderground v.1.15,2013-08-09 18:15:00,
2013-08-09 13:21:00,85.0,77.0,29.94,SSW,209,2.0,2.0,77,0.00,,,0.18,345,Wunderground v.1.15,2013-08-09 18:21:00,
2013-08-09 13:27:00,85.0,77.0,29.94,West,281,1.0,4.0,77,0.00,,,0.18,418,Wunderground v.1.15,2013-08-09 18:27:00,
2013-08-09 13:33:00,84.9,76.9,29.94,WNW,302,2.0,5.0,77,0.00,,,0.18,302,Wunderground v.1.15,2013-08-09 18:33:00,
2013-08-09 13:38:00,84.7,78.2,29.94,NW,311,2.0,5.0,81,0.00,,,0.18,330,Wunderground v.1.15,2013-08-09 18:38:00,
2013-08-09 13:43:00,84.7,77.8,29.94,NW,319,2.0,4.0,80,0.00,,,0.19,469,Wunderground v.1.15,2013-08-09 18:43:00,
2013-08-09 13:49:00,85.0,77.8,29.94,WSW,250,2.0,4.0,79,0.00,,,0.19,765,Wunderground v.1.15,2013-08-09 18:49:00,
2013-08-09 13:55:00,85.4,77.8,29.94,South,175,2.0,6.0,78,0.00,,,0.19,645,Wunderground v.1.15,2013-08-09 18:55:00,
2013-08-09 14:00:00,85.4,76.6,29.94,SW,217,2.0,2.0,75,0.00,,,0.19,580,Wunderground v.1.15,2013-08-09 19:00:00,
2013-08-09 14:06:00,85.4,77.0,29.94,SSW,196,1.0,4.0,76,0.00,,,0.19,316,Wunderground v.1.15,2013-08-09 19:06:00,
2013-08-09 14:11:00,86.2,79.3,29.94,NNW,333,2.0,4.0,80,0.00,,,0.19,979,Wunderground v.1.15,2013-08-09 19:11:00,
2013-08-09 14:17:00,87.0,78.1,29.94,North,350,3.0,5.0,75,0.00,,,0.19,768,Wunderground v.1.15,2013-08-09 19:17:00,
2013-08-09 14:22:00,86.9,78.0,29.93,WNW,296,3.0,4.0,75,0.00,,,0.19,696,Wunderground v.1.15,2013-08-09 19:22:00,
2013-08-09 14:27:00,87.0,76.9,29.93,NW,324,3.0,4.0,72,0.00,,,0.19,877,Wunderground v.1.15,2013-08-09 19:27:00,
2013-08-09 14:33:00,87.1,76.5,29.93,NW,315,3.0,6.0,71,0.00,,,0.19,854,Wunderground v.1.15,2013-08-09 19:33:00,
2013-08-09 14:39:00,87.3,77.6,29.92,NW,313,2.0,6.0,73,0.00,,,0.19,844,Wunderground v.1.15,2013-08-09 19:39:00,
2013-08-09 14:45:00,87.7,77.1,29.93,NNE,15,2.0,6.0,71,0.00,,,0.20,837,Wunderground v.1.15,2013-08-09 19:45:00,
2013-08-09 14:51:00,87.2,77.1,29.92,NW,313,2.0,6.0,72,0.00,,,0.20,387,Wunderground v.1.15,2013-08-09 19:51:00,
2013-08-09 14:57:00,86.8,78.3,29.93,NNW,332,3.0,6.0,76,0.00,,,0.20,777,Wunderground v.1.15,2013-08-09 19:57:00,
2013-08-09 15:02:00,86.6,76.5,29.92,WNW,288,3.0,6.0,72,0.00,,,0.20,413,Wunderground v.1.15,2013-08-09 20:02:00,
2013-08-09 15:08:00,86.1,76.8,29.92,WNW,300,3.0,6.0,74,0.00,,,0.20,253,Wunderground v.1.15,2013-08-09 20:08:00,
2013-08-09 15:14:00,85.7,76.9,29.92,WNW,291,3.0,3.0,75,0.00,,,0.20,334,Wunderground v.1.15,2013-08-09 20:14:00,
2013-08-09 15:20:00,85.7,78.0,29.93,NW,316,2.0,4.0,78,0.00,,,0.20,287,Wunderground v.1.15,2013-08-09 20:20:00,
2013-08-09 15:26:00,85.6,77.6,29.92,NNW,327,2.0,4.0,77,0.00,,,0.20,221,Wunderground v.1.15,2013-08-09 20:26:00,
2013-08-09 15:32:00,85.4,76.6,29.92,NW,326,2.0,7.0,75,0.00,,,0.20,329,Wunderground v.1.15,2013-08-09 20:32:00,
2013-08-09 15:38:00,85.9,77.8,29.92,NNW,327,3.0,7.0,77,0.00,,,0.21,837,Wunderground v.1.15,2013-08-09 20:38:00,
2013-08-09 15:44:00,86.1,77.2,29.92,NNW,338,3.0,7.0,75,0.00,,,0.21,241,Wunderground v.1.15,2013-08-09 20:44:00,
2013-08-09 15:50:00,85.6,77.6,29.92,NW,315,3.0,7.0,77,0.00,,,0.21,283,Wunderground v.1.15,2013-08-09 20:50:00,
2013-08-09 15:55:00,85.4,77.4,29.92,NNW,339,3.0,7.0,77,0.00,,,0.21,225,Wunderground v.1.15,2013-08-09 20:55:00,
2013-08-09 16:00:00,85.3,77.7,29.92,NNW,337,4.0,4.0,78,0.00,,,0.21,345,Wunderground v.1.15,2013-08-09 21:00:00,
2013-08-09 16:06:00,85.0,77.0,29.93,NW,321,4.0,7.0,77,0.00,,,0.21,118,Wunderground v.1.15,2013-08-09 21:06:00,
2013-08-09 16:12:00,84.3,76.3,29.93,NNW,345,4.0,7.0,77,0.00,,,0.21,146,Wunderground v.1.15,2013-08-09 21:12:00,
2013-08-09 16:18:00,83.9,76.7,29.93,NW,309,4.0,7.0,79,0.00,,,0.21,146,Wunderground v.1.15,2013-08-09 21:18:00,
2013-08-09 16:24:00,83.7,76.9,29.93,NNW,346,4.0,5.0,80,0.00,,,0.21,125,Wunderground v.1.15,2013-08-09 21:24:00,
2013-08-09 16:30:00,83.4,76.6,29.93,North,351,3.0,3.0,80,0.00,,,0.21,90,Wunderground v.1.15,2013-08-09 21:30:00,
2013-08-09 16:36:00,83.1,76.3,29.93,North,355,3.0,5.0,80,0.00,,,0.21,100,Wunderground v.1.15,2013-08-09 21:36:00,
2013-08-09 16:42:00,82.4,74.8,29.93,NE,50,3.0,9.0,78,0.00,,,0.21,91,Wunderground v.1.15,2013-08-09 21:42:00,
2013-08-09 16:47:00,80.7,74.3,29.94,North,350,2.0,9.0,81,0.00,,,0.21,132,Wunderground v.1.15,2013-08-09 21:47:00,
2013-08-09 16:53:00,79.7,74.1,29.94,North,350,3.0,5.0,83,0.00,,,0.21,181,Wunderground v.1.15,2013-08-09 21:53:00,
2013-08-09 16:59:00,79.2,73.6,29.94,North,355,3.0,7.0,83,0.00,,,0.21,246,Wunderground v.1.15,2013-08-09 21:59:00,
2013-08-09 17:05:00,79.1,73.1,29.94,North,350,4.0,6.0,82,0.00,,,0.21,211,Wunderground v.1.15,2013-08-09 22:05:00,
2013-08-09 17:11:00,78.7,73.1,29.94,NW,321,5.0,8.0,83,0.00,,,0.21,443,Wunderground v.1.15,2013-08-09 22:11:00,
2013-08-09 17:17:00,79.0,73.4,29.94,NNW,340,4.0,8.0,83,0.00,,,0.21,127,Wunderground v.1.15,2013-08-09 22:17:00,
2013-08-09 17:23:00,78.8,73.2,29.93,North,5,4.0,5.0,83,0.00,,,0.22,218,Wunderground v.1.15,2013-08-09 22:23:00,
2013-08-09 17:29:00,79.3,73.7,29.94,NNW,336,2.0,5.0,83,0.00,,,0.22,313,Wunderground v.1.15,2013-08-09 22:29:00,
2013-08-09 17:35:00,79.7,73.3,29.94,North,360,3.0,8.0,81,0.00,,,0.22,338,Wunderground v.1.15,2013-08-09 22:35:00,
2013-08-09 17:40:00,79.7,73.3,29.93,NNW,348,3.0,3.0,81,0.00,,,0.22,325,Wunderground v.1.15,2013-08-09 22:40:00,
2013-08-09 17:46:00,79.9,73.5,29.93,North,355,2.0,8.0,81,0.00,,,0.22,327,Wunderground v.1.15,2013-08-09 22:46:00,
2013-08-09 17:52:00,80.1,74.1,29.93,North,355,3.0,8.0,82,0.00,,,0.22,292,Wunderground v.1.15,2013-08-09 22:52:00,
2013-08-09 17:58:00,80.3,73.2,29.93,NNW,336,3.0,8.0,79,0.00,,,0.22,278,Wunderground v.1.15,2013-08-09 22:58:00,
2013-08-09 18:04:00,80.5,73.8,29.93,NNW,334,4.0,4.0,80,0.00,,,0.22,258,Wunderground v.1.15,2013-08-09 23:04:00,
2013-08-09 18:10:00,80.4,74.0,29.93,North,355,3.0,3.0,81,0.00,,,0.22,243,Wunderground v.1.15,2013-08-09 23:10:00,
2013-08-09 18:16:00,80.6,73.9,29.93,NNW,346,2.0,3.0,80,0.00,,,0.22,218,Wunderground v.1.15,2013-08-09 23:16:00,
2013-08-09 18:22:00,80.3,73.6,29.93,NNW,331,2.0,4.0,80,0.00,,,0.22,56,Wunderground v.1.15,2013-08-09 23:22:00,
2013-08-09 18:28:00,79.6,72.9,29.93,North,355,2.0,4.0,80,0.00,,,0.22,39,Wunderground v.1.15,2013-08-09 23:28:00,
2013-08-09 18:34:00,78.9,72.6,29.93,NNW,340,1.0,9.0,81,0.00,,,0.22,25,Wunderground v.1.15,2013-08-09 23:34:00,
2013-08-09 18:40:00,78.4,72.8,29.93,NNW,340,1.0,1.0,83,0.00,,,0.22,23,Wunderground v.1.15,2013-08-09 23:40:00,
2013-08-09 18:46:00,78.0,72.8,29.94,NNW,341,0.0,9.0,84,0.00,,,0.23,35,Wunderground v.1.15,2013-08-09 23:46:00,
2013-08-09 18:52:00,77.7,72.5,29.94,NNW,344,0.0,9.0,84,0.00,,,0.23,39,Wunderground v.1.15,2013-08-09 23:52:00,
2013-08-09 18:57:00,77.6,72.7,29.94,NNW,348,1.0,9.0,85,0.00,,,0.23,69,Wunderground v.1.15,2013-08-09 23:57:00,
2013-08-09 19:03:00,77.6,72.7,29.94,NNW,342,1.0,3.0,85,0.00,,,0.23,35,Wunderground v.1.15,2013-08-10 00:03:00,
2013-08-09 19:09:00,77.5,73.0,29.94,NNW,342,0.0,3.0,86,0.00,,,0.23,28,Wunderground v.1.15,2013-08-10 00:09:00,
2013-08-09 19:15:00,77.3,72.8,29.94,NNW,342,0.0,1.0,86,0.00,,,0.23,26,Wunderground v.1.15,2013-08-10 00:15:00,
2013-08-09 19:21:00,77.1,72.9,29.94,NNW,342,0.0,0.0,87,0.00,,,0.23,21,Wunderground v.1.15,2013-08-10 00:21:00,
2013-08-09 19:27:00,77.1,73.3,29.94,NNW,342,0.0,0.0,88,0.00,,,0.23,23,Wunderground v.1.15,2013-08-10 00:27:00,
2013-08-09 19:33:00,77.0,73.5,29.94,NNW,342,0.0,5.0,89,0.00,,,0.23,14,Wunderground v.1.15,2013-08-10 00:33:00,
2013-08-09 19:39:00,76.8,73.3,29.95,NW,319,0.0,5.0,89,0.00,,,0.23,7,Wunderground v.1.15,2013-08-10 00:39:00,
2013-08-09 19:45:00,76.7,73.5,29.95,NW,319,0.0,5.0,90,0.00,,,0.23,0,Wunderground v.1.15,2013-08-10 00:45:00,
2013-08-09 19:47:00,76.6,73.4,29.95,NW,319,0.0,5.0,90,0.00,,,0.23,0,Wunderground v.1.15,2013-08-10 00:47:00,
2013-08-09 19:52:00,76.3,73.5,29.95,NW,319,0.0,5.0,91,0.00,,,0.23,0,Wunderground v.1.15,2013-08-10 00:52:00,
2013-08-09 19:58:00,76.0,73.2,29.95,NW,319,0.0,5.0,91,0.00,,,0.23,0,Wunderground v.1.15,2013-08-10 00:58:00,
2013-08-09 20:04:00,75.8,73.0,29.95,NW,319,0.0,0.0,91,0.00,,,0.23,0,Wunderground v.1.15,2013-08-10 01:04:00,
2013-08-09 20:10:00,75.7,73.2,29.96,NW,319,0.0,0.0,92,0.00,,,0.23,0,Wunderground v.1.15,2013-08-10 01:10:00,
2013-08-09 20:16:00,75.5,73.0,29.96,NW,319,0.0,0.0,92,0.00,,,0.23,0,Wunderground v.1.15,2013-08-10 01:16:00,
2013-08-09 20:22:00,75.3,72.8,29.95,NW,319,0.0,0.0,92,0.00,,,0.23,0,Wunderground v.1.15,2013-08-10 01:22:00,
2013-08-09 20:28:00,75.1,72.6,29.96,NW,319,0.0,0.0,92,0.00,,,0.23,0,Wunderground v.1.15,2013-08-10 01:28:00,
2013-08-09 20:30:00,75.1,72.6,29.96,NW,319,0.0,0.0,92,0.00,,,0.23,0,Wunderground v.1.15,2013-08-10 01:30:00,
2013-08-09 20:36:00,74.9,72.7,29.96,NW,319,0.0,1.0,93,0.00,,,0.23,0,Wunderground v.1.15,2013-08-10 01:36:00,
2013-08-09 20:42:00,74.6,72.4,29.96,NW,319,0.0,1.0,93,0.00,,,0.23,0,Wunderground v.1.15,2013-08-10 01:42:00,
2013-08-09 20:48:00,74.4,72.6,29.96,NW,319,0.0,1.0,94,0.00,,,0.23,0,Wunderground v.1.15,2013-08-10 01:48:00,
2013-08-09 20:54:00,74.2,72.4,29.97,NW,319,0.0,1.0,94,0.00,,,0.23,0,Wunderground v.1.15,2013-08-10 01:54:00,
2013-08-09 21:00:00,73.9,72.1,29.97,NW,319,0.0,0.0,94,0.00,,,0.23,0,Wunderground v.1.15,2013-08-10 02:00:00,
2013-08-09 21:06:00,73.7,72.2,29.97,NW,319,0.0,0.0,95,0.00,,,0.23,0,Wunderground v.1.15,2013-08-10 02:06:00,
2013-08-09 21:11:00,73.5,72.0,29.98,NW,319,0.0,0.0,95,0.00,,,0.23,0,Wunderground v.1.15,2013-08-10 02:11:00,
2013-08-09 21:17:00,73.3,71.8,29.98,NW,319,0.0,0.0,95,0.00,,,0.24,0,Wunderground v.1.15,2013-08-10 02:17:00,
2013-08-09 21:23:00,73.3,71.8,29.98,NW,319,0.0,0.0,95,0.00,,,0.24,0,Wunderground v.1.15,2013-08-10 02:23:00,
2013-08-09 21:29:00,73.1,71.9,29.98,NW,319,0.0,0.0,96,0.00,,,0.24,0,Wunderground v.1.15,2013-08-10 02:29:00,
2013-08-09 21:35:00,72.9,71.4,29.98,NW,319,0.0,0.0,95,0.00,,,0.24,0,Wunderground v.1.15,2013-08-10 02:35:00,
2013-08-09 21:41:00,72.7,71.5,29.99,NW,319,0.0,0.0,96,0.00,,,0.24,0,Wunderground v.1.15,2013-08-10 02:41:00,
2013-08-09 21:47:00,72.6,71.4,29.99,NW,319,0.0,0.0,96,0.00,,,0.24,0,Wunderground v.1.15,2013-08-10 02:47:00,
2013-08-09 21:52:00,72.6,71.4,29.99,NW,319,0.0,0.0,96,0.00,,,0.24,0,Wunderground v.1.15,2013-08-10 02:52:00,
2013-08-09 21:58:00,72.5,71.3,30.00,NW,319,0.0,1.0,96,0.00,,,0.24,0,Wunderground v.1.15,2013-08-10 02:58:00,
2013-08-09 22:04:00,72.6,71.7,30.00,NW,319,0.0,1.0,97,0.00,,,0.24,0,Wunderground v.1.15,2013-08-10 03:04:00,
2013-08-09 22:10:00,72.6,71.7,30.00,NW,319,0.0,0.0,97,0.00,,,0.24,0,Wunderground v.1.15,2013-08-10 03:10:00,
2013-08-09 22:16:00,72.6,71.7,30.00,NW,319,0.0,0.0,97,0.00,,,0.24,0,Wunderground v.1.15,2013-08-10 03:16:00,
2013-08-09 22:21:00,72.6,71.7,30.00,NW,319,0.0,0.0,97,0.00,,,0.24,0,Wunderground v.1.15,2013-08-10 03:21:00,
2013-08-09 22:27:00,72.7,71.8,30.00,NW,319,0.0,0.0,97,0.00,,,0.24,0,Wunderground v.1.15,2013-08-10 03:27:00,
2013-08-09 22:33:00,72.8,71.9,30.00,NW,319,0.0,0.0,97,0.00,,,0.24,0,Wunderground v.1.15,2013-08-10 03:33:00,
2013-08-09 22:39:00,72.9,72.0,30.00,NW,319,0.0,0.0,97,0.00,,,0.24,0,Wunderground v.1.15,2013-08-10 03:39:00,
2013-08-09 22:45:00,72.9,72.0,30.00,NW,319,0.0,0.0,97,0.00,,,0.24,0,Wunderground v.1.15,2013-08-10 03:45:00,
2013-08-09 22:51:00,72.9,72.0,30.00,NW,319,0.0,0.0,97,0.00,,,0.24,0,Wunderground v.1.15,2013-08-10 03:51:00,
2013-08-09 22:57:00,73.0,72.1,30.00,NW,319,0.0,0.0,97,0.00,,,0.24,0,Wunderground v.1.15,2013-08-10 03:57:00,
2013-08-09 23:01:00,73.0,72.1,30.00,NW,319,0.0,0.0,97,0.00,,,0.24,0,Wunderground v.1.15,2013-08-10 04:01:00,
2013-08-09 23:02:00,73.0,72.1,30.00,NW,319,0.0,0.0,97,0.00,,,0.24,0,Wunderground v.1.15,2013-08-10 04:02:00,
2013-08-09 23:03:00,73.0,72.1,30.00,NW,319,0.0,0.0,97,0.00,,,0.24,0,Wunderground v.1.15,2013-08-10 04:03:00,
2013-08-09 23:04:00,73.0,72.1,30.00,NW,319,0.0,0.0,97,0.00,,,0.24,0,Wunderground v.1.15,2013-08-10 04:04:00,
2013-08-09 23:09:00,73.0,72.1,30.00,NW,319,0.0,0.0,97,0.00,,,0.24,0,Wunderground v.1.15,2013-08-10 04:09:00,
2013-08-09 23:15:00,72.9,72.0,30.00,NW,319,0.0,0.0,97,0.00,,,0.24,0,Wunderground v.1.15,2013-08-10 04:15:00,
2013-08-09 23:20:00,72.9,72.0,30.00,NW,319,0.0,0.0,97,0.00,,,0.24,0,Wunderground v.1.15,2013-08-10 04:20:00,
2013-08-09 23:26:00,72.9,72.0,30.00,NW,319,0.0,0.0,97,0.00,,,0.24,0,Wunderground v.1.15,2013-08-10 04:26:00,
2013-08-09 23:31:00,72.9,72.0,30.00,NW,319,0.0,1.0,97,0.00,,,0.24,0,Wunderground v.1.15,2013-08-10 04:31:00,
2013-08-09 23:37:00,72.9,72.0,30.00,NW,319,0.0,1.0,97,0.00,,,0.24,0,Wunderground v.1.15,2013-08-10 04:37:00,
2013-08-09 23:43:00,72.8,71.9,30.00,NW,319,0.0,1.0,97,0.00,,,0.24,0,Wunderground v.1.15,2013-08-10 04:43:00,
2013-08-09 23:49:00,72.6,71.7,30.00,NW,319,0.0,1.0,97,0.00,,,0.24,0,Wunderground v.1.15,2013-08-10 04:49:00,
2013-08-09 23:55:00,72.5,71.6,30.00,NW,319,0.0,1.0,97,0.00,,,0.24,0,Wunderground v.1.15,2013-08-10 04:55:00,